Regional Weather Roundup
Issued by NWS

Home | Current Version | Previous Version | Text Only | Print | Product List | Glossary Off
Versions: 1 2 3 4 5 6 7 8 9 10 11 12 13 14 15 16 17 18 19 20 21 22 23 24 25 26 27 28 29 30 31 32 33 34 35 36 37 38 39 40 41 42 43 44 45 46 47 48 49 50

848
ASUS43 KMPX 281610
RWRMN
WEATHER ROUNDUP FOR MINNESOTA
NATIONAL WEATHER SERVICE TWIN CITIES/CHANHASSEN MN
1100 AM CDT SUN AUG 28 2016


NOTE: "FAIR" INDICATES FEW OR NO CLOUDS BELOW 12,000 FEET WITH NO
SIGNIFICANT WEATHER AND/OR OBSTRUCTIONS TO VISIBILITY. N/A MEANS
CURRENT SKY AND/OR WEATHER CONDITIONS ARE NOT AVAILABLE.

MNZ060>063-068>070-281700-
   Twin Cities Metro

CITY           SKY/WX    TMP DP  RH WIND       PRES   REMARKS
TWIN CITIES    CLOUDY    72  66  81 S13       30.14F
ST PAUL        CLOUDY    71  67  87 SE12      30.15F FOG
CRYSTAL        CLOUDY    71  65  81 S9        30.12F
BLAINE         CLOUDY    70  70 100 SE7       30.14S FOG
LAKEVILLE      SUNNY     73  73 100 SE7       30.15S
EDEN PRAIRIE   SUNNY     73  67  81 S7        30.13S
LAKEVILLE      SUNNY     73  73 100 SE7       30.15S
SOUTH ST PAUL  CLOUDY    69  68  99 SE5       30.16S FOG
LAKE ELMO      FOG       66  66 100 SE9       30.16F VSB 3/4
$$
MNZ001>005-007-008-013>017-022>024-027-028-281700-
   Northwest Minnesota

CITY           SKY/WX    TMP DP  RH WIND       PRES   REMARKS
BEMIDJI        CLOUDY    63  62  96 SE10      30.12R
HALLOCK        SUNNY     72  64  78 SE12G17   29.99F
ROSEAU         SUNNY     72  64  78 SE10      30.05S
WARROAD        PTSUNNY   66  63  88 SE9       30.08R
THIEF RVR FALL SUNNY     73  64  73 S13       30.05R
CROOKSTON      SUNNY     73  64  73 S14       30.03S
FOSSTON        SUNNY     72  66  83 SE10      30.08R
DETROIT LAKES  SUNNY     70  63  78 S14       30.09R
MOORHEAD       SUNNY     72  63  73 SE10G17   30.03F
PARK RAPIDS    PTSUNNY   69  61  75 SE10      30.11F
MAHNOMEN       FAIR      70  62  75 S9        30.08R
$$
MNZ006-009>011-018-025>026-281700-
   North Central Minnesota

CITY           SKY/WX    TMP DP  RH WIND       PRES   REMARKS
BAUDETTE       CLOUDY    62  61  96 SE10      30.10R
FLAG ISLAND    CLOUDY    63  61  94 SE3       30.08S FOG
INTL FALLS     CLOUDY    61  59  93 SE7       30.14S
WASKISH          N/A     64  63  94 SE7       30.11S
BIG FORK       CLOUDY    63  61  94 SE5       30.15S FOG
LONGVILLE      PTSUNNY   68  63  83 S7        30.13F
GRAND RAPIDS   CLOUDY    63  62  97 S5        30.17S
CRANE LAKE     CLOUDY    57  55  94 SE3       30.18R
ORR            CLOUDY    59  57  94 CALM      30.14S
COOK           CLOUDY    61  59  94 S3        30.17S
WALKER         PTSUNNY   66  61  84 E7        30.12S
$$
MNZ012-019>021-037-281700-
   Northeast Minnesota

CITY           SKY/WX    TMP DP  RH WIND       PRES   REMARKS
DULUTH         CLOUDY    64  61  90 CALM      30.18S
ELY            CLOUDY    59  57  94 SW5       30.18R
HIBBING        CLOUDY    59  59 100 SW6       30.17R
EVELETH        CLOUDY    60  60  98 SW6       30.18S
DULUTH HARBOR  CLOUDY    64  61  88 CALM      30.18R
TWO HARBORS    CLOUDY    64  59  82 S3        30.17R
SILVER BAY     CLOUDY    63  61  94 S6        30.17R
GRAND MARAIS     N/A     65  56  72 SW12      30.17R
G MARAIS ARPRT SUNNY     66  54  63 S3        30.19S
$$
MNZ029>031-032-039>041-046>048-054>057-064-281700-
   West Central Minnesota

CITY           SKY/WX    TMP DP  RH WIND       PRES   REMARKS
FERGUS FALLS   SUNNY     72  63  73 SE14      30.06S
WHEATON        SUNNY     77  66  69 SE16G23   30.03F
MORRIS         MOSUNNY   73  64  73 SE12      30.05F
ALEXANDRIA     MOSUNNY   68  62  81 SE10      30.10F
ELBOW LAKE     PTSUNNY   72  63  73 E13       30.06S
WADENA         MOSUNNY   70  64  83 SE13      30.10S
GLENWOOD       CLOUDY    70  64  83 SE9       30.10F
APPLETON       SUNNY     75  61  60 SE12G20   30.06S
BENSON         CLOUDY    72  61  68 S12       30.07F
ORTONVILLE     SUNNY     75  64  69 SE15G26   30.05S
MADISON        SUNNY     73  64  73 SE16G24   30.08S
WILLMAR        FAIR      73  68  83 S8G16     30.09F
$$
MNZ033>034-036-042>043-049>051-058-059-281700-
   Central Minnesota

CITY           SKY/WX    TMP DP  RH WIND       PRES   REMARKS
ST CLOUD       CLOUDY    65  65 100 E6        30.13R FOG
SAUK CENTRE    CLOUDY    65  63  92 SE6       30.11F
PAYNESVILLE    CLOUDY    65  65 100 E6        30.11F
AITKIN         CLOUDY    70  63  78 SE7       30.13S
PINE RIVER     MOSUNNY   70  63  78 SE6       30.15F
BRAINERD       PTSUNNY   71  64  78 S10       30.13R
STAPLES        PTSUNNY   70  64  83 SE7       30.11F
LONG PRAIRIE   FAIR      68  63  83 E8        30.11F
LITTLE FALLS   CLOUDY    68  64  88 SE7       30.13S
LITCHFIELD     CLOUDY    70  68  94 S5        30.10F
BUFFALO        CLOUDY    68  67  94 S7        30.13F
MAPLE LAKE     LGT RAIN  67  66  99 N7        30.15R
HUTCHINSON     SUNNY     77  71  81 S6        30.13F
$$
MNZ037-044-045-052-053-281700-
   East Central Minnesota

CITY           SKY/WX    TMP DP  RH WIND       PRES   REMARKS
PRINCETON      CLOUDY    64  64 100 E3        30.15S FOG
MORA           CLOUDY    64  63  94 SE5       30.17S
CAMBRIDGE      CLOUDY    66  66 100 SE5       30.14R FOG
RUSH CITY      RAIN      64  63  97 SE3       30.17R
MOOSE LAKE     CLOUDY    64  61  88 SE3       30.16R
HINCKLEY       CLOUDY    64  63  94 CALM      30.17R
CLOQUET        CLOUDY    63  61  94 S3        30.18R
MCGREGOR       CLOUDY    64  63  94 SE5       30.16S
$$
MNZ071>073-080-081-089-090-097-098-281700-
   Southwest Minnesota

CITY           SKY/WX    TMP DP  RH WIND       PRES   REMARKS
MONTEVIDEO     CLOUDY    73  72  94 S9        30.11S
GRANITE FALLS  PTSUNNY   76  68  75 SE12      30.13F
CANBY          PTSUNNY   73  67  81 E16       30.10F
MARSHALL       PTSUNNY   72  67  84 SE15      30.12R
REDWOOD FALLS  SUNNY     74  67  78 SE8       30.13S
OLIVIA         CLOUDY    75  68  78 SE7       30.12F
PIPESTONE      SUNNY     79  72  78 S13G18    30.11R
WINDOM         MOSUNNY   79  70  73 SE7       30.15R
WORTHINGTON    SUNNY     77  71  82 SE9       30.14R
JACKSON          N/A     79  68  69 SE5       30.15S
TRACY          PTSUNNY   72  68  86 SE8       30.14R
SLAYTON        MOSUNNY   73  70  88 SE8       30.13F
$$
MNZ065>067-074>077-082>085-091>093-281700-
   South Central Minnesota

CITY           SKY/WX    TMP DP  RH WIND       PRES   REMARKS
MANKATO        MOSUNNY   73  68  83 S6        30.16S
NEW ULM          N/A     72  68  88 SE5       30.15S
ST JAMES       PTSUNNY   70  64  83 E6        30.16S
FAIRMONT       SUNNY     76  70  82 S7        30.16R
GLENCOE        CLOUDY    73  73 100 S7        30.13F
FARIBAULT      MOSUNNY   77  72  83 S5        30.18R
OWATONNA       SUNNY     77  70  78 SE8       30.18R
WASECA         MOSUNNY   77  70  78 S7        30.19R
ALBERT LEA     SUNNY     75  70  83 S8        30.18S
$$
MNZ078>079-086>088-094>096-281700-
   Southeast Minnesota

CITY           SKY/WX    TMP DP  RH WIND       PRES   REMARKS
ROCHESTER      SUNNY     75  69  81 SE5       30.20S
RED WING       CLOUDY    72  68  88 SE7       30.16S
STANTON        SUNNY     77  68  73 S5        30.16R
DODGE CENTER   PTSUNNY   77  70  78 S5        30.20R
WINONA         CLOUDY    70  66  88 E3        30.21R
AUSTIN         CLOUDY    72  68  88 S5        30.19S
PRESTON        PTSUNNY   69  68  94 S5        30.21S
$$
ABBREVIATIONS USED IN REMARKS
   TC - TEMPERATURES IN CELSIUS
  WCI - WIND CHILL INDEX
   HX - HEAT INDEX
  VSB - VISIBILITY
$$




USA.gov is the U.S. government's official web portal to all federal, state and local government web resources and services.